Stations météo

Publicité
Pertusato, France (7770): Température de l'air & dewpoint: 21.10.2020 18:00:00 - 27.10.2020 18:00:00 (CET)Pertusato, France (7770): Vitesse du vent & gusts: 21.10.2020 18:00:00 - 27.10.2020 18:00:00 (CET)Pertusato, France (7770): Direction du vent: 21.10.2020 18:00:00 - 27.10.2020 18:00:00 (CET)Pertusato, France (7770): reduced air pressure: 21.10.2020 18:00:00 - 27.10.2020 18:00:00 (CET)Pertusato, France (7770): visibility: 21.10.2020 18:00:00 - 27.10.2020 18:00:00 (CET)Pertusato, France (7770): Quantités de précipitations: 21.10.2020 18:00:00 - 27.10.2020 18:00:00 (CET)
Date & Time tt [°C] td [°C] ff [km/h] ff [knt] fx [km/h] fx [knt] dd ppp [hPa] vv [km] rr [mm]
27.10.2020 18:00:00 - - - - - - - - - -
27.10.2020 17:00:00 14,3 9,3 42 23 69 37 WNW 1012,7 - 0,0
27.10.2020 16:00:00 16,0 9,4 42 23 68 37 W 1011,9 12 0,0
27.10.2020 15:00:00 16,3 9,7 43 23 68 37 WNW 1011,6 - 0,0
27.10.2020 14:00:00 15,5 9,4 41 22 71 38 W 1011,8 - 0,0
27.10.2020 13:00:00 16,1 10,0 46 25 69 37 W 1011,4 12 0,0
27.10.2020 12:00:00 16,1 9,5 42 23 67 36 W 1012,1 - 0,0
27.10.2020 11:00:00 15,6 9,0 48 26 77 42 W 1011,6 - 0,0
27.10.2020 10:00:00 16,0 9,6 53 29 84 46 W 1010,9 12 0,0
27.10.2020 09:00:00 15,5 9,2 53 29 85 46 W 1010,8 - 0,0
27.10.2020 08:00:00 15,2 8,9 62 33 86 47 W 1009,5 - 0,0
27.10.2020 07:00:00 15,2 9,3 59 32 90 49 W 1009,7 12 0,0
27.10.2020 06:00:00 15,4 10,4 60 32 99 53 W 1009,0 - 0,0
27.10.2020 05:00:00 15,2 9,8 70 38 95 52 W 1007,9 - 0,0
27.10.2020 04:00:00 15,3 9,6 64 35 94 51 W 1008,2 12 0,0
27.10.2020 03:00:00 15,4 11,2 62 34 91 49 W 1008,7 - 0,4
27.10.2020 02:00:00 14,8 10,2 52 28 90 49 W 1008,7 - 0,4
27.10.2020 01:00:00 16,0 10,3 59 32 81 44 W 1008,8 12 0,0
27.10.2020 00:00:00 15,7 9,4 51 28 86 46 W 1008,5 - 0,0
26.10.2020 23:00:00 15,6 10,8 58 32 83 45 W 1008,6 - 0,0
26.10.2020 22:00:00 15,6 11,2 54 29 80 43 W 1008,6 12 0,0
26.10.2020 21:00:00 14,9 11,5 44 24 75 41 W 1007,9 - 1,6
26.10.2020 20:00:00 14,8 12,5 19 11 58 31 WNW 1007,8 - 0,0
26.10.2020 19:00:00 14,6 12,3 33 18 59 32 W 1008,1 12 0,0
26.10.2020 18:00:00 14,2 11,5 33 18 60 32 W 1007,4 - 0,6
26.10.2020 17:00:00 14,0 12,4 37 20 72 39 WNW 1006,4 - 3,6
26.10.2020 16:00:00 17,5 14,0 35 19 63 34 WNW 1005,8 12 0,0
26.10.2020 15:00:00 20,8 14,7 25 14 45 25 WSW 1006,3 - 0,0
26.10.2020 14:00:00 20,8 14,4 10 6 34 19 SSW 1007,0 - 0,0
26.10.2020 13:00:00 20,2 14,1 15 8 31 17 SW 1008,6 15 0,0
26.10.2020 12:00:00 21,1 14,5 9 5 29 16 SW 1009,5 - 0,0
26.10.2020 11:00:00 20,9 14,3 8 5 24 13 SSW 1010,4 - 0,0
26.10.2020 10:00:00 20,4 13,8 8 4 24 13 SSE 1010,8 21 0,0
26.10.2020 09:00:00 19,0 13,8 11 6 26 14 S 1011,3 - 0,0
26.10.2020 08:00:00 17,9 13,8 8 5 18 10 SSE 1011,6 - 0,0
26.10.2020 07:00:00 17,2 13,3 9 5 24 13 SSE 1011,2 - 0,0
26.10.2020 06:00:00 17,6 13,9 9 5 26 14 S 1011,7 - 0,0
26.10.2020 05:00:00 17,8 14,5 14 7 32 17 SW 1012,2 - 0,0
26.10.2020 04:00:00 17,0 14,5 5 3 18 10 NE 1012,7 12 0,0
26.10.2020 03:00:00 17,4 14,3 9 5 35 19 SSW 1013,1 - 0,0
26.10.2020 02:00:00 18,0 14,9 11 6 45 24 WSW 1013,7 - 0,0
26.10.2020 01:00:00 18,3 14,6 16 8 45 25 WSW 1014,3 15 0,0
26.10.2020 00:00:00 17,7 14,8 13 7 27 14 SW 1014,8 - 0,0
25.10.2020 23:00:00 17,8 14,3 10 5 32 18 SSW 1015,1 - 0,0
25.10.2020 22:00:00 17,9 14,2 9 5 34 18 SW 1015,4 15 0,0
25.10.2020 21:00:00 18,0 13,9 17 9 31 17 WSW 1015,5 - 0,0
25.10.2020 20:00:00 18,5 14,2 18 10 42 23 WSW 1015,7 - 0,0
25.10.2020 19:00:00 18,6 14,5 21 12 46 25 WSW 1015,5 14 0,0
25.10.2020 18:00:00 18,6 15,1 18 10 40 21 WSW 1015,5 - 0,0
25.10.2020 17:00:00 18,6 15,7 11 6 27 15 W 1015,5 - 0,0
25.10.2020 16:00:00 18,8 15,5 18 10 26 14 W 1016,0 19 0,0
25.10.2020 15:00:00 19,3 15,6 21 11 29 15 W 1016,2 - 0,0
25.10.2020 14:00:00 19,3 16,0 21 11 34 18 W 1016,4 - 0,0
25.10.2020 13:00:00 19,3 16,0 22 12 34 19 W 1017,1 18 0,0
25.10.2020 12:00:00 18,5 14,6 14 8 42 23 W 1017,8 - 0,0
25.10.2020 11:00:00 18,5 13,6 24 13 38 21 W 1018,0 - 0,0
25.10.2020 10:00:00 18,5 13,4 24 13 32 18 W 1018,0 18 0,0
25.10.2020 09:00:00 17,7 13,4 26 14 34 19 W 1018,0 - 0,0
25.10.2020 08:00:00 17,0 13,5 23 12 37 20 W 1017,7 - 0,0
25.10.2020 07:00:00 16,5 13,2 24 13 32 18 W 1017,4 14 0,0
25.10.2020 06:00:00 16,4 12,2 22 12 33 18 W 1017,4 - 0,0
25.10.2020 05:00:00 15,9 11,5 21 11 48 26 W 1017,5 - 0,0
25.10.2020 04:00:00 16,3 11,9 35 19 52 28 WNW 1016,9 13 0,0
25.10.2020 03:00:00 16,1 12,5 29 15 45 25 WNW 1017,7 - 0,0
25.10.2020 02:00:00 16,3 12,8 29 15 58 32 W 1018,3 - 0,0
25.10.2020 01:00:00 - - - - - - - - - -
25.10.2020 00:00:00 17,0 12,7 36 19 66 36 WNW 1018,4 - 0,0
24.10.2020 23:00:00 17,2 12,9 49 27 70 38 W 1018,1 - 0,0
24.10.2020 22:00:00 17,3 12,4 53 28 84 46 W 1018,2 13 0,0
24.10.2020 21:00:00 17,3 12,6 54 29 79 43 W 1018,0 - 0,0
24.10.2020 20:00:00 17,4 11,9 55 30 80 43 W 1017,6 - 0,0
24.10.2020 19:00:00 17,5 12,2 55 30 81 44 W 1017,1 14 0,0
24.10.2020 18:00:00 17,4 11,9 49 27 75 41 W 1017,3 - 0,0
24.10.2020 17:00:00 17,5 13,2 47 26 72 39 W 1017,7 - 0,0
24.10.2020 16:00:00 18,0 13,3 53 28 78 42 W 1017,7 12 0,0
24.10.2020 15:00:00 18,0 13,3 44 24 86 46 W 1016,6 - 0,0
24.10.2020 14:00:00 18,0 13,9 50 27 83 45 W 1016,8 - 0,0
24.10.2020 13:00:00 18,0 14,3 51 28 74 40 W 1018,1 12 0,0
24.10.2020 12:00:00 18,1 14,2 35 19 68 37 W 1018,6 - 0,0
24.10.2020 11:00:00 18,1 14,4 31 17 66 35 W 1018,9 - 0,0
24.10.2020 10:00:00 18,0 14,1 40 22 55 30 W 1018,9 12 0,0
24.10.2020 09:00:00 18,2 14,9 35 19 56 30 W 1018,7 - 0,0
24.10.2020 08:00:00 17,3 15,3 32 18 63 34 W 1018,3 - 0,0
24.10.2020 07:00:00 18,4 17,4 30 16 64 35 W 1017,5 12 0,0
24.10.2020 06:00:00 18,5 17,8 17 9 45 25 W 1018,0 - 0,0
24.10.2020 05:00:00 18,9 18,1 16 9 48 26 W 1018,3 - 0,0
24.10.2020 04:00:00 18,1 17,5 14 7 53 29 W 1018,4 10 0,0
24.10.2020 03:00:00 18,6 18,1 36 19 61 33 WSW 1018,4 - 0,0
24.10.2020 02:00:00 18,6 18,3 31 17 63 34 WSW 1018,5 - 0,0
24.10.2020 01:00:00 18,6 18,3 25 14 54 29 WSW 1018,8 10 0,0
24.10.2020 00:00:00 18,7 18,2 22 12 59 32 W 1019,4 - 0,0
23.10.2020 23:00:00 18,6 18,1 19 10 59 32 W 1019,1 - 0,0
23.10.2020 22:00:00 18,9 18,6 26 14 56 30 W 1019,3 4,0 0,0
23.10.2020 21:00:00 19,1 18,6 20 11 55 30 W 1018,7 - 0,0
23.10.2020 20:00:00 19,5 18,8 32 17 58 31 WSW 1018,2 - 0,0
23.10.2020 19:00:00 19,8 17,6 16 9 42 23 W 1018,4 12 0,0
23.10.2020 18:00:00 19,8 17,2 16 9 26 14 W 1018,4 - 0,0
23.10.2020 17:00:00 20,2 17,6 7 4 18 10 WSW 1018,1 - 0,0
23.10.2020 16:00:00 22,4 15,7 10 5 16 9 WSW 1018,0 12 0,0
23.10.2020 15:00:00 23,1 17,6 2 1 18 10 NW 1017,6 - 0,0
23.10.2020 14:00:00 22,6 18,2 14 7 29 16 NE 1017,8 - 0,0
23.10.2020 13:00:00 22,4 17,5 22 12 38 21 NE 1018,4 12 0,0
23.10.2020 12:00:00 20,9 17,9 26 14 44 24 NE 1018,9 - 0,0
23.10.2020 11:00:00 20,7 18,5 27 15 45 25 NE 1019,4 - 0,0
23.10.2020 10:00:00 20,0 18,3 28 15 46 25 NE 1019,5 8 0,0
23.10.2020 09:00:00 19,7 18,9 27 14 44 24 NE 1019,5 - 0,0
23.10.2020 08:00:00 18,9 18,4 28 15 45 25 NE 1019,4 - 0,0
23.10.2020 07:00:00 18,6 18,1 27 15 44 24 NE 1019,2 5 0,0
23.10.2020 06:00:00 18,7 18,2 29 15 49 26 NE 1018,7 - 0,0
23.10.2020 05:00:00 18,7 18,2 28 15 49 26 NE 1018,7 - 0,2
23.10.2020 04:00:00 18,8 18,3 32 17 50 27 NE 1018,6 12 0,0
23.10.2020 03:00:00 18,7 18,2 31 17 50 27 NE 1018,9 - 0,0
23.10.2020 02:00:00 18,7 18,2 29 16 50 27 NE 1019,8 - 0,0
23.10.2020 01:00:00 18,7 18,2 27 14 46 25 NE 1019,7 12 0,0
23.10.2020 00:00:00 18,8 18,3 26 14 42 23 ENE 1020,1 - 0,0
22.10.2020 23:00:00 18,7 18,2 28 15 47 25 ENE 1020,3 - 0,2
22.10.2020 22:00:00 18,6 17,9 29 16 46 25 ENE 1020,5 12 0,0
22.10.2020 21:00:00 18,6 17,8 29 16 45 24 ENE 1020,7 - 0,0
22.10.2020 20:00:00 18,5 17,5 29 16 45 24 ENE 1020,4 - 0,0
22.10.2020 19:00:00 18,8 18,0 29 16 40 21 ENE 1020,7 12 0,0
22.10.2020 18:00:00 19,0 17,8 24 13 39 21 ENE 1020,6 - 0,0
22.10.2020 17:00:00 19,7 17,8 24 13 43 23 ENE 1020,6 - 0,0
22.10.2020 16:00:00 20,2 18,0 26 14 41 22 ENE 1020,7 12 0,0
22.10.2020 15:00:00 20,0 17,8 22 12 42 23 NE 1021,1 - 0,0
22.10.2020 14:00:00 20,7 17,7 26 14 44 24 ENE 1020,8 - 0,0
22.10.2020 13:00:00 21,3 17,7 29 16 48 26 ENE 1021,4 12 0,0
22.10.2020 12:00:00 21,2 17,6 25 14 44 24 ENE 1022,1 - 0,0
22.10.2020 11:00:00 21,5 17,7 27 14 44 24 ENE 1022,7 - 0,0
22.10.2020 10:00:00 20,8 17,6 28 15 43 23 ENE 1022,6 12 0,0
22.10.2020 09:00:00 19,6 17,6 26 14 42 23 ENE 1022,6 - 0,0
22.10.2020 08:00:00 18,7 17,4 24 13 40 22 ENE 1022,2 - 0,0
22.10.2020 07:00:00 18,1 17,1 24 13 40 21 ENE 1021,8 12 0,0
22.10.2020 06:00:00 18,0 16,7 28 15 43 23 E 1021,4 - 0,0
22.10.2020 05:00:00 17,9 16,9 24 13 39 21 E 1021,4 - 0,2
22.10.2020 04:00:00 18,0 17,2 26 14 39 21 E 1021,2 12 0,0
22.10.2020 03:00:00 18,0 17,2 25 13 38 20 E 1021,5 - 0,0
22.10.2020 02:00:00 18,1 17,5 22 12 36 19 ENE 1021,6 - 0,0
22.10.2020 01:00:00 18,4 17,7 22 12 34 18 E 1021,3 13 0,0
22.10.2020 00:00:00 18,6 17,8 19 11 41 22 ENE 1021,2 - 0,0
21.10.2020 23:00:00 18,7 17,7 25 14 41 22 ENE 1021,0 - 0,0
21.10.2020 22:00:00 18,7 17,7 26 14 42 23 ENE 1021,2 13 0,0
21.10.2020 21:00:00 18,6 17,4 26 14 46 25 ENE 1021,2 - 0,0
21.10.2020 20:00:00 18,7 17,5 30 16 47 25 ENE 1020,9 - 0,0
21.10.2020 19:00:00 18,5 17,3 25 14 43 23 ENE 1021,0 10 0,0
21.10.2020 18:00:00 18,2 16,5 25 13 48 26 NE 1020,5 - 0,0

tt = Température de l'air
td = dewpoint
ff = Vitesse du vent
fx = gusts
dd = Direction du vent
ppp = reduced air pressure
vv = visibility
rr = Quantités de précipitations

stations d'obs. à proximité